User: anonymous   Login
Location: Unspecified
(0.0000°N, 0.0000°E)
Time: 18:26:54
(UTC+00:00)
Language:

Akebono - Orbit

View from above orbital plane
View from above orbital plane
View from above satellite
View from above satellite

Ground track
Ground track

The orbit data is extracted from the following two-line orbital elements,

1 19822U 89016A   17080.90473581 +.00025756 +78768-6 +51931-3 0  9998
2 19822 075.0431 030.8018 1928150 313.2248 032.2728 11.64696582899078
Epoch (UTC): 21 March 2017 21:42:49
Eccentricity: 0.1928150
inclination: 75.0431°
perigee height: 258 km
apogee height: 3428 km
right ascension of ascending node: 30.8018°
argument of perigee: 313.2248°
revolutions per day: 11.64696582
mean anomaly at epoch: 32.2728°
orbit number at epoch: 89907

The dashed part of the orbit path shows where the satellite is in the earth's shadow,  

DLR